Location: Augirein
(42.9320°N, 0.9181°E)
Time: 20:10:47
(UTC+00:00)

NPP - Pass Details

Date: 20 June 2021
Orbit: 826 x 828 km, 98.7° (Epoch: 02 August)

Event Time Altitude Azimuth Distance (km) Brightness Sun altitude
Rises 01:25:48 0° 17° (NNE) 3,377 8.4 -20.6°
Reaches altitude 10° 01:28:12 10° 21° (NNE) 2,439 7.3 -20.5°
Maximum altitude 01:33:33 61° 101° (E) 940 3.9 -20.1°
Enters shadow 01:35:59 32° 169° (S) 1,391 4.4 -19.9°
